This is the latest recevied weather packets stored in our database for station/object AB4KY. If no packets are shown the sender has not sent any weather packets the latest 10 day(s).
| Time | Temp. | Humidity | Pressure | Rain* | Wind** | Luminosity | Snow |
|---|---|---|---|---|---|---|---|
| 1777689701 | 6.67° C | 86% | 1015.6 hPa | 0 mm | - | 0 W/m² | - |
| 1777689399 | 6.67° C | 86% | 1015.9 hPa | 0 mm | - | 0 W/m² | - |
| 1777689096 | 6.67° C | 85% | 1015.3 hPa | 0 mm | - | 0 W/m² | - |
| 1777688792 | 6.67° C | 85% | 1015.6 hPa | 0 mm | - | 0 W/m² | - |
| 1777688489 | 6.67° C | 85% | 1015.5 hPa | 0 mm | - | 0 W/m² | - |
| 1777688187 | 6.67° C | 84% | 1015.3 hPa | 0 mm | - | 0 W/m² | - |
| 1777687884 | 7.22° C | 83% | 1015.3 hPa | 0 mm | - | 0 W/m² | - |
| 1777687581 | 7.22° C | 82% | 1015.3 hPa | 0 mm | - | 0 W/m² | - |
| 1777687278 | 7.78° C | 80% | 1015 hPa | 0 mm | - | 0 W/m² | - |
| 1777686976 | 7.78° C | 79% | 1014.9 hPa | 0 mm | - | 0 W/m² | - |
| 1777686672 | 7.78° C | 78% | 1015 hPa | 0 mm | - | 0 W/m² | - |
| 1777686369 | 8.33° C | 78% | 1014.7 hPa | 0 mm | - | 0 W/m² | - |
| 1777686066 | 8.33° C | 74% | 1014.6 hPa | 0 mm | - | 0 W/m² | - |
| 1777685762 | 8.89° C | 76% | 1014.6 hPa | 0 mm | - | 0 W/m² | - |
| 1777685458 | 9.44° C | 74% | 1014.5 hPa | 0 mm | - | 0 W/m² | - |
| 1777685155 | 9.44° C | 71% | 1014.4 hPa | 0 mm | - | 0 W/m² | - |
| 1777684853 | 9.44° C | 68% | 1014.5 hPa | 0 mm | - | 0 W/m² | - |
| 1777684550 | 10° C | 69% | 1014.4 hPa | 0 mm | - | 0 W/m² | - |
| 1777684246 | 10° C | 70% | 1014.3 hPa | 0 mm | - | 0 W/m² | - |
| 1777683943 | 10.56° C | 65% | 1014.2 hPa | 0 mm | - | 0 W/m² | - |
| 1777683640 | 10.56° C | 63% | 1014 hPa | 0 mm | - | 0 W/m² | - |
| 1777683338 | 10.56° C | 62% | 1014.1 hPa | 0 mm | - | 0 W/m² | - |
| 1777683035 | 10° C | 63% | 1014 hPa | 0 mm | - | 0 W/m² | - |
| 1777682731 | 10.56° C | 66% | 1014 hPa | 0 mm | - | 0 W/m² | - |
| 1777682428 | 10.56° C | 64% | 1014.1 hPa | 0 mm | - | 0 W/m² | - |
* Rain latest hour (hover to see other rain measurements)
** Current wind speed in m/s (hover to see current wind gust speed)